Regional Weather Roundup
Issued by NWS Cleveland, OH

Home | Current Version | Previous Version | Text Only | Print | Product List | Glossary Off
Versions: 1 2 3 4 5 6 7 8 9 10 11 12 13 14 15 16 17 18 19 20 21 22 23 24 25 26 27 28 29 30 31 32 33 34 35 36 37 38 39 40 41 42 43 44 45 46 47 48 49 50

000
ASUS41 KCLE 220300
RWRCLE
OHIO REGIONAL WEATHER ROUNDUP
NATIONAL WEATHER SERVICE WILMINGTON, OH
1100 PM EDT FRI JUL 21 2017

NOTE: "FAIR" INDICATES FEW OR NO CLOUDS BELOW 12,000 FEET WITH NO
SIGNIFICANT WEATHER AND/OR OBSTRUCTIONS TO VISIBILITY.

OHZ001>008-015>018-024>027-034-035-043-044-220400-
   NORTHWEST OHIO

CITY           SKY/WX    TMP DP  RH WIND       PRES   REMARKS
DEFIANCE       FAIR     N/A N/A N/A S3        29.95S
FINDLAY        FAIR      75  70  84 S5        29.95S
TOLEDO EXPRESS FAIR      75  69  81 CALM      29.94S
TOLEDO EXEC    FAIR      78  69  73 SE5       29.96R
LIMA           FAIR      74  72  93 S6        29.96F
$$

OHZ009>014-019>023-028>033-038-089-220400-
   NORTHEAST OHIO

CITY           SKY/WX    TMP DP  RH WIND       PRES   REMARKS
CLE-HOPKINS    FAIR      79  66  64 CALM      29.98R
CLE-LAKEFRONT  FAIR      78  66  66 CALM      29.94S
CUY CO. ARPT   PTCLDY    72  68  88 CALM      29.97S
LORAIN-ELYRIA  FAIR      70  65  84 CALM      29.98R
ASHTABULA      FAIR      68  67  96 CALM      29.97F
AKRON-CANTON   FAIR      76  67  73 CALM      30.00R
WOOSTER        NOT AVBL
MANSFIELD      FAIR      75  72  90 CALM      30.00R
YOUNGSTOWN     MOCLDY    72  67  84 CALM      29.98S
$$

OHZ042-051>053-060>062-070>072-077>081-220400-
  SOUTHWEST OHIO

CITY           SKY/WX    TMP DP  RH WIND       PRES   REMARKS
CINC-COVINGTON FAIR      77  73  87 S3        29.97S
CINC-LUNKEN    FAIR      75  74  96 CALM      29.97R
HAMILTON       FAIR      76  74  93 CALM      29.98R
DAYTON         NOT AVBL
WRIGHT-PAT AFB NOT AVBL
DAYTON GENERAL MOCLDY    75  72  90 CALM      29.99R THUNDER
WILMINGTON     CLOUDY    73  73 100 NW7       30.00R
$$

OHZ036-037-039>041-045>050-054>059-063>069-073>076-082>088-220400-
  CENTRAL AND SOUTHEAST OHIO

CITY           SKY/WX    TMP DP  RH WIND       PRES   REMARKS
COLUMBUS       FAIR      78  74  87 CALM      29.97R
OSU AIRPORT    FAIR      77  74  90 CALM      29.97R
BOLTON FIELD   NOT AVBL
RICKENBACK AFB NOT AVBL
NEWARK         FAIR      73  71  93 CALM      29.97R
MARION         FAIR      74  70  87 CALM      29.98S
LANCASTER      CLOUDY    74  73  97 CALM      29.98S
ZANESVILLE     FAIR      76  73  91 S3        29.98F
NEW PHILLY     FAIR      75  74  96 SE5       29.99R
$$




USA.gov is the U.S. government's official web portal to all federal, state and local government web resources and services.